Weather in Razmetelevo

Russia / Saint-Petersburg and Leningrad Oblast     59°54′14″N   30°40′47″E
temp.,
°C
wind,
m/s
gust,
m/s
humid.,
%
clouds,
%
prec.,
mm/h
press.,
hPa
HPBL,
m
16 may, sun
sun1600:00+10n1290100 0.0 100363
03:00+10wnw229450 0.2 100330
06:00+11nw139365 0.1 100491
09:00+15wnw248177 1.1 1005449
12:00+16wnw3479100 0.3 1007671
15:00+17w337295 0.4 1009787
18:00+16w46665 0.0 1009568
21:00+11w26803 0.0 1011132
17 may, mon
mon1700:00+9w22755 0.0 101231
03:00+9s117717 0.0 101210
06:00+11se248611 0.0 1013119
09:00+18se24677 0.0 1013508
12:00+21se4550100 0.0 10121298
15:00+23se4746100 0.0 10112006
18:00+22se385298 0.0 10101459
21:00+18e31170100 0.0 1009311
18 may, tue
tue1800:00+16sse31286100 1.3 1008444
03:00+14ne3795100 2.0 1007229
06:00+15e3109653 0.0 1005354
09:00+19se41181100 0.0 1004660
12:00+24sse61059100 0.0 10031464
15:00+26s6115443 0.4 10031810
18:00+24ssw4116098 0.1 10031371
21:00+17s81493100 13.4 1004875
19 may, wed
wed1900:00+17s41273100 0.0 1003803
03:00+15s41186100 0.0 1004618
06:00+15s2790100 0.0 1004419
09:00+17sw2473100 0.0 1004688
12:00+20wsw246283 0.0 10041047
15:00+17w138699 2.1 1005348
18:00+16wnw2379100 0.5 1005317
21:00+14wnw2390100 0.5 100485
20 may, thu
thu2000:00+13nnw139579 0.4 1004121
03:00+12nne129991 1.0 100484
06:00+13ne1199100 0.0 1002105
09:00+15ene2394100 0.0 1002325
12:00+17e3685100 0.2 1001655
15:00+17se488899 2.1 999661
18:00+16s5108787 2.1 998805
21:00+14sw4993100 3.3 998514